Location: ??????
(55.0072°N, 37.8128°E)
Time: 07:24:39
(UTC+00:00)

Daily predictions for brighter satellites

Satellite Brightness Start Highest point End
(mag) Time Altitude Azimuth Time Altitude Azimuth Time Altitude Azimuth
GEOS 3 Rocket 4.3 18:20:10 10° ENE 18:24:47 31° ESE 18:29:19 10° S
Cosmos 1980 4.1 18:21:16 10° SW 18:26:55 71° NW 18:32:35 10° NNE
Okean 3 Rocket 4.0 18:24:26 10° N 18:28:45 49° ENE 18:33:00 10° SSE
Cosmos 923 Rocket 4.0 18:23:54 10° SSW 18:29:12 74° ESE 18:34:34 10° NNE
Cosmos 1378 2.8 18:26:36 10° S 18:29:53 89° E 18:33:12 10° NNE
SPOT 5 3.4 18:25:34 10° S 18:30:07 54° W 18:34:30 10° NNW
USA 234 3.5 18:23:39 10° E 18:30:13 76° N 18:36:45 10° W
Cosmos 921 Rocket 3.9 18:26:22 10° SSE 18:30:22 33° ESE 18:34:24 10° NE
Cosmos 1943 4.5 18:31:39 10° SSE 18:35:51 22° ESE 18:40:03 10° NE
ARGOS Delta rocket 4.1 18:31:55 10° S 18:37:03 82° W 18:41:56 10° NNW
Landsat 5 4.4 18:35:46 10° NE 18:39:01 26° E 18:42:15 10° SSE
Landsat 4 3.8 18:35:42 10° S 18:39:11 67° WSW 18:42:41 10° NNW
USA 306 2.6 18:35:41 10° W 18:39:26 76° S 18:43:20 10° E
Cosmos 1656 Rocket 3.9 18:34:45 10° NW 18:40:09 68° WSW 18:45:36 10° SSE
ATLAS 2AS CENTAUR R/B 2.9 18:33:05 10° SW 18:40:27 87° NW 18:47:32 10° NE
Terra 2.0 18:36:19 10° S 18:41:03 76° WSW 18:45:47 10° NNW
Okean O Rocket 4.2 18:37:56 10° SW 18:41:04 19° W 18:44:13 10° NW
USA 59 Rocket 1.1 18:40:32 10° NW 18:43:37 33° NNE 18:47:26 10° E
Meteor 1-14 Rocket 4.4 18:38:29 10° NNW 18:44:19 84° ENE 18:50:14 10° SSE
ERS-1 Rocket 3.4 18:40:25 10° S 18:45:24 63° WSW 18:50:25 10° NNW
Meteor 1-11 Rocket 4.1 18:42:15 10° N 18:47:44 53° ENE 18:53:15 10° SE
USA 281 3.3 18:41:09 10° SSE 18:47:46 83° WSW 18:54:25 10° NNW
SPOT 3 Rocket 3.6 18:44:13 10° SSE 18:49:22 81° WSW 18:54:33 10° NNW
Cosmos 1943 Rocket 4.3 18:47:27 10° NW 18:51:31 21° W 18:55:33 10° SSW
Cosmos 1842 Rocket 4.0 18:48:04 10° SSE 18:52:18 45° E 18:56:32 10° NNE
Lacrosse 4 Rocket 3.6 18:49:38 10° NNW 18:52:41 20° NNE 18:55:46 10° ENE
H-2A R/B 4.3 18:51:20 10° ESE 18:54:26 21° ENE 18:57:37 10° N
NOSS 2-1 (D) 4.3 18:52:57 10° NW 18:56:07 38° NNE 19:00:05 10° E
USA 307 0.6 18:56:58 10° W 18:57:34 27° SW 18:57:34 27° SW
Cosmos 1331 Rocket 4.2 18:52:47 10° NNW 18:58:04 68° ENE 19:02:58 12° SE
Cosmos 1110 Rocket 4.1 18:54:29 10° NNW 18:59:50 74° ENE 19:04:49 12° SE
Cosmos 2279 Rocket 4.0 18:53:50 10° N 19:00:05 80° ENE 19:06:17 10° SSE
Cosmos 1634 Rocket 4.2 18:54:36 10° NNW 19:00:55 75° W 19:07:09 10° S
Cosmos 1743 3.3 18:59:31 10° NNW 19:03:01 49° W 19:06:31 10° S
Cosmos 2297 4.4 18:58:14 10° NW 19:03:45 48° WSW 19:09:12 10° S
ARIANE 5 R/B 3.6 19:01:09 10° SE 19:05:00 35° ENE 19:08:56 10° N
USA 229 DEB 4.2 18:59:48 10° NW 19:07:00 64° SW 19:14:21 12° SSE
USA 229 4.2 18:59:54 10° NW 19:07:06 65° SW 19:14:28 12° SSE
USA 245 4.4 19:06:05 10° SW 19:07:46 18° W 19:09:27 10° NW
ISS -3.1 19:05:12 10° W 19:08:20 38° SSW 19:10:58 13° SE
Cosmos 1340 Rocket 4.5 19:06:59 12° SE 19:09:29 20° E 19:12:25 10° NE
Cosmos 2112 Rocket 4.1 19:06:18 10° SSW 19:11:38 84° WNW 19:16:58 10° NNE
Spot 2 Rocket 4.4 19:14:52 10° S 19:19:39 44° W 19:24:29 10° NNW
Cosmos 1680 Rocket 4.0 19:16:43 10° SW 19:21:58 65° WNW 19:27:14 10° NNE
Cosmos 1726 2.0 19:20:22 10° NNW 19:23:30 61° W 19:26:04 14° S
Meteor 2-6 Rocket 4.2 19:18:14 10° SSW 19:23:51 86° WNW 19:29:23 10° NNE
Cosmos 1805 4.2 19:25:04 10° N 19:28:29 33° ENE 19:31:06 15° SE
Cosmos 1743 Rocket 3.7 19:25:59 10° N 19:30:22 66° ENE 19:33:46 16° SSE
NOSS 2-1 (C) 3.7 19:28:00 10° NW 19:31:24 58° NE 19:35:49 10° ESE
Kosmos-1783 3.9 19:30:31 10° W 19:31:57 32° NNW 19:33:55 10° NE
Sich 1 3.0 19:31:23 10° N 19:35:46 78° ENE 19:39:07 17° SSE
SL-16 R/B 2.6 19:30:12 10° SW 19:35:52 70° NW 19:41:35 10° NNE
MetOp-A 4.3 19:33:25 12° S 19:37:24 54° W 19:42:08 10° NNW
Cosmos 1603 4.3 19:33:53 13° S 19:38:23 38° ESE 19:43:37 10° NE
Lacrosse 5 4.1 19:38:11 10° W 19:40:28 13° WSW 19:42:46 10° SSW
Ariane Rocket 4.5 19:37:47 10° SSW 19:42:15 31° W 19:46:46 10° NNW
Cosmos 1452 Rocket 3.9 19:37:08 10° NNW 19:42:17 58° WSW 19:46:28 15° S
Cosmos 1536 3.2 19:40:03 10° NNW 19:43:51 54° W 19:46:58 15° S
Cosmos 1975 3.6 19:40:23 10° N 19:44:08 39° ENE 19:46:47 17° SE
Meteor 1-27 Rocket 3.8 19:39:56 14° S 19:44:34 59° E 19:50:01 10° NNE
Spot 1 4.2 19:40:41 10° NNE 19:44:43 68° WNW 19:48:47 10° SSW
Cosmos 1408 Rocket 4.0 19:41:04 10° NNW 19:45:28 58° W 19:49:11 14° S
Cosmos 2369 Rocket 3.4 19:40:57 10° NW 19:45:51 32° WSW 19:50:37 11° SSW
Lacrosse 5 rocket 1.3 19:44:37 10° WSW 19:48:55 88° SSE 19:53:05 10° ENE
Cosmos 2221 4.5 19:49:35 10° SW 19:53:20 28° WNW 19:57:07 10° N
Cosmos 1340 2.3 19:49:55 10° NNW 19:53:20 88° ENE 19:55:25 22° SSE
Okean 1 3.2 19:50:57 16° S 19:53:59 85° E 19:57:54 10° NNE
PSLV R/B 4.5 19:50:08 10° NNE 19:54:02 41° E 19:56:27 20° SSE
Cosmos 1626 3.6 19:59:00 16° ESE 20:00:10 19° E 20:02:31 10° NE
GEOS 3 Rocket 3.8 19:57:58 10° NE 20:03:13 78° NW 20:08:21 10° WSW
BREEZE-M DEB (TANK) 3.4 20:02:03 10° SW 20:07:53 - ESE 20:02:58 19° SSW
Cosmos 921 Rocket 4.3 20:04:14 10° SW 20:08:29 41° WNW 20:12:47 10° NNE
Meteor 2-17 Rocket 4.4 20:06:28 15° S 20:11:39 84° E 20:17:45 10° NNE
USA 306 3.1 20:09:21 10° W 20:13:01 42° SSW 20:15:01 23° SSE
USA 234 3.2 20:06:39 10° ESE 20:13:15 85° SSW 20:19:50 10° WNW
SL-8 R/B 4.5 20:14:42 10° SW 20:18:45 28° SSE 20:22:49 10° ESE
Cosmos 1943 3.2 20:13:31 10° SSW 20:19:13 88° WNW 20:24:56 10° NNE
Terra 4.3 20:17:12 10° WSW 20:19:28 13° W 20:21:44 10° NW
Cosmos 1328 Rocket 4.2 20:19:15 21° SSE 20:21:39 40° E 20:25:43 10° NNE
Meteor 2-4 Rocket 4.1 20:18:25 19° SSE 20:22:33 57° E 20:28:22 10° NNE
Spot 4 3.8 20:19:23 21° SSE 20:22:36 83° ENE 20:27:23 10° NNW
Cosmos 1733 4.1 20:20:46 10° NNW 20:24:01 35° W 20:26:10 18° SSW
IRIDIUM 104 4.4 20:18:47 10° N 20:24:03 82° W 20:27:45 20° S
ALOS 2 2.8 20:21:27 21° SSE 20:24:19 64° ENE 20:28:41 10° N
Cosmos 1470 Rocket 4.1 20:20:23 10° N 20:24:47 50° ENE 20:27:38 20° SE
Cosmos 1048 Rocket 4.3 20:20:06 10° SW 20:25:14 65° WNW 20:30:21 10° NNE
H-2A R/B 2.6 20:26:30 23° S 20:28:59 66° WSW 20:33:13 10° NNW
Cosmos 1092 Rocket 4.1 20:25:48 19° S 20:30:23 70° E 20:36:42 10° NNE
Lacrosse 4 Rocket 1.5 20:27:37 10° NW 20:31:40 68° NE 20:34:40 18° SE
ATLAS 2AS CENTAUR R/B 3.9 20:25:12 10° W 20:32:07 46° NNW 20:38:46 10° ENE
Cosmos 1428 Rocket 4.4 20:27:23 17° S 20:32:12 86° E 20:38:21 10° NNE
IRIDIUM 114 4.5 20:27:58 10° N 20:33:11 70° W 20:36:53 19° S
USA 59 Rocket 0.0 20:29:49 10° NW 20:33:27 62° SW 20:36:26 21° SSE
Cosmos 1656 3.6 20:28:04 10° NNW 20:33:33 83° ENE 20:37:39 18° SE
Cosmos 1302 Rocket 4.4 20:28:43 10° NW 20:33:45 51° WSW 20:37:02 21° S
NOSS 2-1 (E) 3.5 20:30:40 10° NW 20:34:18 61° SW 20:37:17 21° SSE
Cosmos 1666 Rocket 3.5 20:30:23 10° NNW 20:34:45 78° W 20:37:19 24° S
Cosmos 1151 Rocket 3.1 20:31:54 19° SSW 20:35:01 75° WNW 20:39:24 10° N
Cosmos 1633 Rocket 3.0 20:34:04 10° NNW 20:38:31 86° WSW 20:41:08 24° S
ARIANE 5 R/B 3.6 20:38:36 18° SSW 20:41:23 37° W 20:45:26 10° NNW
Cosmos 1992 Rocket 4.0 20:37:04 10° NNW 20:42:19 77° WSW 20:45:43 22° SSE
Cosmos 1697 Rocket 3.4 20:38:29 10° NNW 20:44:01 52° NE 20:49:31 10° SE
ISS -1.7 20:42:18 10° WSW 20:43:45 15° SW 20:43:45 15° SW
Cosmos 1340 Rocket 3.4 20:42:10 16° SW 20:45:13 53° WNW 20:49:10 10° N
CZ-2C R/B 4.1 20:41:00 10° N 20:45:32 59° WNW 20:49:14 14° SW
NOSS 2-1 (D) 3.8 20:42:20 10° WNW 20:45:53 48° SW 20:48:21 24° SSE
H-2A R/B 3.4 20:43:02 10° NE 20:46:54 28° E 20:49:05 19° SE
Cosmos 2195 Rocket 4.5 20:43:00 17° SSW 20:47:48 82° WNW 20:53:58 10° N
Cosmos 1980 Rocket 3.6 20:44:02 10° NNW 20:49:18 36° NE 20:54:34 10° ESE
Cosmos 1933 Rocket 4.2 20:45:59 10° N 20:50:13 48° ENE 20:52:58 20° SE
Cosmos 614 Rocket 4.1 20:47:59 22° S 20:51:19 62° ESE 20:56:30 10° NNE
Cosmos 1908 4.4 20:49:44 10° N 20:52:58 31° ENE 20:55:06 17° ESE
Cosmos 1766 3.1 20:50:40 10° NNW 20:54:25 90° WSW 20:56:16 29° S
Cosmos 1470 3.2 20:54:35 10° N 20:58:14 50° ENE 21:00:14 24° SE
Cosmos 1707 4.0 21:00:02 20° SE 21:01:37 27° E 21:04:44 10° NNE
Cosmos 2360 4.2 21:04:04 10° NW 21:09:49 88° WSW 21:14:09 18° SSE
USA 267 3.5 21:11:25 10° ENE 21:17:45 50° SE 21:23:24 13° SW
Cosmos 1975 4.4 21:16:36 10° NNW 21:19:51 25° W 21:21:58 16° SW
Cosmos 1603 4.4 21:16:47 10° SW 21:22:22 55° NW 21:28:00 10° NNE
Orbus 7S? 4.4 21:24:43 21° SE 21:24:43 21° SE 21:26:30 10° E
Lacrosse 5 rocket 1.8 21:23:15 10° W 21:27:29 65° N 21:31:33 10° E
Cosmos 1269 Rocket 4.1 21:24:14 23° S 21:27:29 66° ESE 21:32:44 10° NNE
NOSS 3-4 (A) 3.9 21:21:02 10° NW 21:27:34 81° NE 21:35:11 10° SE
NOSS 3-4 (C) 3.9 21:21:05 10° NW 21:27:37 80° NE 21:35:15 10° SE
Helios 1A Rocket 4.3 21:24:57 11° SE 21:28:11 31° ENE 21:31:37 10° N
Cosmos 1140 Rocket 4.5 21:25:30 20° SSE 21:28:19 34° ESE 21:33:00 10° NE
Cosmos 2082 Rocket 4.3 21:27:30 10° SE 21:30:25 14° E 21:33:21 10° ENE
Cosmos 1626 2.9 21:31:51 21° SW 21:33:31 36° WNW 21:36:35 10° N
PSLV R/B 3.7 21:29:03 10° NNE 21:33:43 83° ESE 21:36:22 25° SSW
Cosmos 1674 2.4 21:34:14 32° S 21:35:45 87° ESE 21:39:16 10° NNE
Meteor 2-10 Rocket 4.4 21:30:28 10° N 21:36:09 53° ENE 21:41:11 13° SE
Cosmos 2315 Rocket 4.2 21:31:38 10° N 21:37:54 71° ENE 21:42:48 18° SSE
Cosmos 1833 Rocket 3.3 21:35:30 22° S 21:38:42 43° ESE 21:44:00 10° NE
S3M 4.0 21:32:50 10° NNW 21:39:14 86° W 21:43:47 21° S
NOSS 3-3 (C) 4.2 21:38:41 22° S 21:42:06 49° SE 21:48:23 10° NE
Cosmos 1300 3.8 21:39:42 10° N 21:43:01 34° ENE 21:45:31 15° SE
Cosmos 44 Rocket 3.2 21:38:11 10° NW 21:43:13 83° SW 21:47:31 13° SE
BREEZE-M DEB (TANK) 3.9 21:33:01 10° SW 21:44:39 40° S 21:48:23 10° E
SL-24 R/B 4.3 21:42:13 10° NNE 21:46:36 75° WNW 21:49:34 22° SSW
GP-B 3.1 21:51:33 10° N 21:56:00 86° E 21:58:36 24° S
Cosmos 1763 Rocket 3.8 21:50:54 10° NNW 21:56:13 68° ENE 22:01:25 10° SE
USA 234 3.6 21:51:34 14° SSE 21:56:46 42° SW 22:02:58 10° WNW
Cosmos 1515 Rocket 3.9 21:54:34 22° SW 21:57:13 56° WNW 22:01:30 10° N
CZ-2D R/B 4.5 21:56:16 10° NE 21:59:08 14° E 22:02:00 10° ESE
SL-8 R/B 4.1 21:56:06 10° WSW 22:00:31 38° S 22:04:56 10° ESE
ALOS 2 4.4 21:58:50 14° SW 22:01:04 20° W 22:04:23 10° NW
Cosmos 1400 Rocket 4.0 21:59:47 18° SSE 22:02:06 33° E 22:05:44 10° NNE
Meteor 1-13 Rocket 4.4 21:58:56 21° S 22:03:00 79° ESE 22:08:57 10° NNE
Cosmos 1869 Rocket 3.7 21:59:11 10° NNW 22:03:28 61° W 22:05:54 25° S
NOSS 8 (A) 4.4 22:01:57 17° WSW 22:04:28 71° NW 22:07:24 10° NE
Cosmos 1733 Rocket 3.3 22:02:27 10° N 22:06:46 62° ENE 22:09:57 17° SSE
Lacrosse 4 Rocket 2.8 22:06:30 10° WNW 22:09:35 21° WSW 22:10:34 19° SW
Cosmos 1655 Rocket 4.1 22:07:35 20° S 22:12:08 80° E 22:18:34 10° NNE
Aureole 3 4.4 22:10:46 16° SE 22:12:19 23° E 22:14:45 10° NE
Cosmos 2322 Rocket 4.1 22:12:05 10° NNW 22:17:07 32° NE 22:22:08 10° E
Cosmos 1818 3.6 22:13:02 18° SW 22:17:09 79° SE 22:22:39 10° NE
Cosmos 1346 Rocket 3.4 22:13:55 10° N 22:17:43 50° ENE 22:20:57 14° SE
H-2A R/B 2.8 22:18:31 10° N 22:22:47 47° WNW 22:25:53 17° SW
USA 59 Rocket 2.2 22:20:57 10° W 22:22:49 12° WSW 22:22:59 12° WSW
Cosmos 540 Rocket 3.6 22:18:55 10° NNW 22:24:07 80° ENE 22:29:18 10° SSE
Resurs 1-4 Rocket 4.0 22:20:18 10° NE 22:24:17 21° E 22:28:13 10° SE
ATLAS 2AS CENTAUR R/B 4.0 22:17:40 10° WNW 22:24:25 44° NNE 22:30:53 10° E
Meteor 1-15 Rocket 4.4 22:18:50 10° NNW 22:24:26 59° W 22:28:18 20° S
Cosmos 1842 4.3 22:22:35 18° SW 22:24:47 33° WNW 22:28:12 10° N
Meteor 1-12 Rocket 4.4 22:19:50 10° NNW 22:25:39 71° W 22:30:07 18° S
Cosmos 1908 4.4 22:24:46 10° NNW 22:27:49 26° W 22:29:18 20° SW
Cosmos 1697 Rocket 3.3 22:22:40 10° NW 22:27:54 40° WSW 22:31:17 20° SSW
APEX 1.9 22:28:03 44° WSW 22:28:33 64° NW 22:30:43 10° NNE
OPS 6432 4.1 22:25:30 10° NW 22:28:45 89° ENE 22:31:50 10° SE
Cosmos 1441 Rocket 3.8 22:25:48 10° NNW 22:29:11 38° W 22:30:46 24° SSW
CZ-2C R/B 3.8 22:25:06 10° SE 22:29:52 39° ENE 22:34:41 10° N
SL-14 R/B 3.5 22:27:37 22° S 22:29:58 61° E 22:33:48 10° NNE
Cosmos 1953 3.5 22:27:21 10° N 22:31:04 38° ENE 22:34:44 10° SE
Cosmos 1980 Rocket 2.2 22:28:01 10° NW 22:33:42 66° WSW 22:38:51 13° SSE
COSMOS 2406 4.4 22:30:09 14° SSE 22:34:18 33° ESE 22:39:23 10° NE
Cosmos 1707 3.8 22:34:21 17° SW 22:36:33 32° WNW 22:39:54 10° N
Cosmos 2369 3.7 22:31:35 10° NW 22:37:19 76° WSW 22:43:01 10° SSE
Cosmos 2266 Rocket 4.4 22:35:15 17° SW 22:39:55 54° WNW 22:46:04 10° N
SL-16 R/B 4.0 22:35:09 10° ESE 22:40:50 38° NE 22:46:32 10° N
Cosmos 1758 3.5 22:38:04 10° NNW 22:41:48 53° W 22:44:00 22° SSW
Cosmos 1862 Rocket 3.7 22:38:55 19° S 22:41:54 67° E 22:46:12 10° NNE
Meteor 1-16 Rocket 4.3 22:37:41 10° NNW 22:43:17 81° ENE 22:48:56 11° SSE
Cosmos 1607 4.2 22:39:11 18° SSW 22:44:03 64° SE 22:50:29 10° NE
Meteor 1-21 4.4 22:45:11 17° S 22:49:37 74° E 22:55:22 10° NNE
SL-16 R/B 2.7 22:54:09 10° NNW 22:59:50 65° NE 23:05:28 10° SE
Cosmos 1455 2.4 22:57:33 10° N 23:00:59 58° ENE 23:04:22 10° SSE
USA 267 3.3 22:54:35 10° ENE 23:01:09 89° N 23:07:44 10° WSW
Helios 1A Rocket 3.6 23:00:20 19° SSW 23:02:30 34° W 23:06:05 10° NNW
Cosmos 1315 Rocket 4.2 23:00:50 10° SSE 23:04:17 32° E 23:07:47 10° NNE
Cosmos 2228 Rocket 3.3 23:01:24 18° SSW 23:04:35 60° WNW 23:09:03 10° N
H-2A R/B 4.2 23:01:08 10° NNE 23:04:59 43° E 23:08:22 13° S
NOSS 3-3 (A) 4.2 22:59:51 10° WSW 23:05:40 72° NNW 23:12:35 10° NE
Lacrosse 5 rocket 1.2 23:01:49 10° WNW 23:06:00 80° SSW 23:09:59 10° ESE
Cosmos 1707 Rocket 3.7 23:03:45 18° SSW 23:06:57 64° WNW 23:11:24 10° N
Cosmos 841 Rocket 3.5 23:04:36 10° NNW 23:09:52 86° ENE 23:15:07 10° SSE
Cosmos 1140 Rocket 4.1 23:05:26 13° SW 23:09:54 52° NW 23:15:02 10° NNE
Cosmos 2251 Rocket 3.6 23:05:57 16° SW 23:10:10 74° WNW 23:15:29 10° NNE
Meteor 1-4 Rocket 3.4 23:09:09 12° SSE 23:11:30 32° E 23:14:13 10° NNE
Cosmos 2237 4.3 23:07:06 10° NNW 23:12:53 84° NE 23:18:38 10° SE
Cosmos 2082 Rocket 2.4 23:08:47 16° SSW 23:13:26 66° ESE 23:19:08 10° NE
Cosmos 676 Rocket 4.4 23:12:40 14° S 23:17:08 59° ESE 23:22:24 10° NNE
Cosmos 1300 3.9 23:14:43 10° NW 23:17:38 24° W 23:19:33 16° SW
NOSS 3-4 (A) 4.4 23:12:02 10° WNW 23:18:13 38° WSW 23:25:14 10° S
NOSS 3-4 (C) 4.3 23:12:05 10° WNW 23:18:17 38° WSW 23:25:19 10° S
Cosmos 2219 Rocket 4.0 23:14:03 10° NNW 23:19:13 35° NE 23:24:24 10° ESE
ADEOS II 3.3 23:14:50 10° NNE 23:19:40 36° E 23:24:28 10° SSE
Cosmos 1833 Rocket 3.4 23:17:11 10° WSW 23:22:38 48° NW 23:28:06 10° NNE
Cosmos 468 Rocket 4.4 23:18:04 10° NW 23:23:07 44° WSW 23:27:55 11° S
Cosmos 407 Rocket 3.9 23:18:38 13° SW 23:23:13 57° WNW 23:28:25 10° NNE
Cosmos 1954 Rocket 4.1 23:20:53 14° SSW 23:25:24 78° ESE 23:30:45 10° NNE
Cosmos 2360 Rocket 3.0 23:20:39 10° NNW 23:26:16 56° NE 23:31:51 10° SE
Cosmos 1190 Rocket 4.1 23:21:55 15° SSW 23:26:23 84° WNW 23:31:44 10° NNE
MOZ.5/SAFIR/RUBIN 5/SL-8 4.3 23:24:18 14° SSW 23:28:07 42° W 23:32:38 10° NNW
Cosmos 1782 Rocket 3.7 23:24:39 10° N 23:29:05 76° ENE 23:33:27 10° SSE
IDEFIX/ARIANE 42P 2.7 23:24:58 10° NNE 23:30:16 75° ESE 23:35:21 11° S
Cosmos 1908 Rocket 3.7 23:25:53 10° NNW 23:30:17 62° W 23:34:34 10° S
Okean 1-7 3.0 23:26:56 14° SSW 23:30:35 83° WNW 23:34:56 10° N
Okean 2 3.3 23:28:57 14° SSW 23:32:21 85° WNW 23:36:21 10° N
NOSS 3-3 (C) 4.5 23:27:08 10° WSW 23:32:57 61° NNW 23:39:55 10° NE
SJ 16-02 3.8 23:31:27 10° SE 23:34:06 16° E 23:36:46 10° ENE
CZ-2C R/B 3.9 23:31:21 10° NNE 23:37:04 55° E 23:42:45 10° S
Cosmos 1400 Rocket 4.0 23:34:57 12° SW 23:38:09 31° WNW 23:41:46 10° N
Cosmos 1408 4.2 23:36:46 10° SE 23:39:13 23° E 23:41:40 10° NE
Cosmos 1745 Rocket 4.1 23:33:20 10° S 23:39:32 84° E 23:45:52 10° NNE
Cosmos 2278 3.8 23:34:23 10° NW 23:40:03 62° WSW 23:45:40 10° SSE
CZ-2D R/B 2.4 23:34:40 10° NNE 23:40:11 69° ESE 23:45:37 10° S
ALOS 3.8 23:37:52 10° NNE 23:41:59 30° E 23:46:03 10° SSE
Cosmos 2333 Rocket 2.7 23:42:13 10° NNW 23:47:56 69° NE 23:53:39 10° SE
COBE Rocket 3.9 23:44:33 10° N 23:49:22 74° WNW 23:54:16 10° SSW
Aureole 3 4.3 23:50:45 11° WSW 23:53:01 21° WNW 23:55:25 10° NNW
Cosmos 1346 Rocket 4.4 23:50:25 10° NW 23:53:16 20° W 23:55:55 11° SW
FENGYUN 3A 4.2 23:48:07 10° NNE 23:53:28 59° ESE 23:58:45 10° S
Okean 3 4.4 23:50:23 11° SW 23:53:54 34° WNW 23:57:41 10° N
Cosmos 2242 Rocket 4.3 23:50:10 10° S 23:54:27 51° E 23:58:49 10° NNE
